Location: ??????
(56.0120°N, 39.1740°E)
Time: 18:13:07
(UTC+00:00)

SL-16 R/B - Pass Details

Date: 14 April 2026
Orbit: 839 x 849 km, 71.0° (Epoch: 19 May)

Event Time Altitude Azimuth Distance (km) Brightness Sun altitude
Exits shadow 21:13:07 19° 250° (WSW) 1,885 3.8 -24.3°
Maximum altitude 21:16:53 47° 316° (NW) 1,113 3.1 -24.3°
Drops below altitude 10° 21:22:23 10° 30° (NNE) 2,481 5.4 -24.3°
Sets 21:24:57 0° 37° (NE) 3,420 6.2 -24.3°
